Regional Weather Roundup
Issued by NWS Newport/Morehead, NC

Current Version | Previous Version | Text Only | Print | Product List | Glossary On
Versions: 1 2 3 4 5 6 7 8 9 10 11 12 13 14 15 16 17 18 19 20 21 22 23 24 25 26 27 28 29 30 31 32 33 34 35 36 37 38 39 40 41 42 43 44 45 46 47 48 49 50
000 ASUS42 KMHX 270612 RWRMHX WEATHER ROUNDUP FOR EASTERN NORTH CAROLINA NATIONAL WEATHER SERVICE NEWPORT/MOREHEAD CITY NC 100 AM EST FRI FEB 27 2015 NOTE: "FAIR" INDICATES FEW OR NO CLOUDS BELOW 12,000 FEET WITH NO SIGNIFICANT WEATHER AND/OR OBSTRUCTIONS TO VISIBILITY NCZ015>017-031-032-045>047-102-103-270700- NORTH COAST CITY SKY/WX TMP DP RH WIND PRES REMARKS EDENTON CLOUDY 32 29 90 N3 30.17S ELIZABETH CITY NOT AVBL KITTY HAWK CLOUDY 33 29 86 N6 30.13R MANTEO CLOUDY 34 28 80 N9 30.15R $$ NCZ045>047-081-094-103-104-270700- CENTRAL COAST CITY SKY/WX TMP DP RH WIND PRES REMARKS FRISCO CLOUDY 34 31 88 VRB7 30.11R SWANQUARTER N/A N/A N/A N/A NW5 30.12S $$ NCZ095-097-098-100-101-270700- SOUTHERN COAST CITY SKY/WX TMP DP RH WIND PRES REMARKS BEAUFORT CLOUDY 34 31 88 N12 30.15R CEDAR ISLAND N/A 34 N/A N/A NW14G20 30.18S JACKSONVILLE CLOUDY 35 30 82 N8 30.16R PINEY ISLAND N/A N/A N/A N/A MISG 30.14S WILMINGTON CLOUDY 36 32 85 N3 30.16S $$ NCZ011>013-027>030-043-044-078>080-089-090>093-098-270700- COASTAL PLAIN CITY SKY/WX TMP DP RH WIND PRES REMARKS AHOSKIE FOG 28 28 97 CALM 30.19R VSB 1/4 CLINTON CLOUDY 34 33 95 CALM 30.18S ELIZABETHTOWN CLOUDY 35 31 88 CALM 30.17R GOLDSBORO NOT AVBL GREENVILLE CLOUDY 32 32 100 CALM 30.19S HAVELOCK CLOUDY 35 29 78 N13 30.17R KENANSVILLE CLOUDY 34 32 95 CALM 30.18R KINSTON CLOUDY 34 32 93 N5 30.18S NEW BERN CLOUDY 34 30 85 N8 30.17S RICHLANDS CLOUDY 34 28 80 NW3 30.17R ROCKY MOUNT FOG 27 27 100 CALM 30.18S VSB 1/4 WASHINGTON CLOUDY 33 31 94 NW3 30.17S WHITEVILLE CLOUDY 35 32 90 CALM 30.16S $$ AMZ130-135-150-152-154-156-158-170-250-252-270-ANZ085-086-088-633-658-670-270700- MARINE OBSERVATIONS STATION/POSITION TIME TEMP WIND PRES WAVE SWELL AIR SEA DIR/SP/G HT/PER HT/PER (UTC) (F) (DEG/KT/KT) (MB) (FT/S) (FT/S) CHESAPEAKE LIGHT 0500 32 10/ 12/ 13 1021.3 64 E VA BEACH 0550 42 60 10/ 17/ 23 1018.9 10/11 8/11 DUCK 0500 33 34 20/ 16/ 18 1019.4 2 E DUCK 0511 35 N/A 8/11 3/11 10 NE DUCK 0522 37 N/A 10/10 5/11 OREGON INLET 0500 33 37 340/ 10/ 16 1019.8 HATTERAS CG 0500 34 40 350/ 19/ 22 1019.6 CAPE LOOKOUT 0600 35 360/ 12/ 13 1020.5 BEAUFORT LAB 0500 35 40 360/ 12/ 15 1019.5 27 SE WRIGHTSVLE NOT AVBL 5 SE WRIGHTSVLE NOT AVBL 225 S CAPE HAT 0550 62 70 320/ 14/ 17 1017.1 9/ 9 8/ 9 41 SE CHARLESTON 0550 45 65 360/ 12/ 17 1020.2 5/ 9 5/ 9 $$

USA.gov is the U.S. government's official web portal to all federal, state and local government web resources and services.